Weather History for CWUS - February, 2013

Change the Weather History Date:

Friday, February 8, 2013

  Actual Average Record
Temperature  
Mean Temperature 33 °F -  
Max Temperature 43 °F - - ()
Min Temperature 23 °F - - ()
Degree Days  
Heating Degree Days 32    
Moisture  
Dew Point 24 °F    
Average Humidity 72    
Maximum Humidity 87    
Minimum Humidity 48    
Precipitation  
Precipitation 0.00 in - - ()
Sea Level Pressure  
Sea Level Pressure 30.21 in    
Wind  
Wind Speed 3 mph ()    
Max Wind Speed 8 mph    
Max Gust Speed -    
T = Trace of Precipitation, MM = Missing Value Source: Averaged Metar Reports

Daily Weather History Graph

Daily Weather History Graph

Search for Another Location

Airport or City:

Trip Planner

Search our weather history database for the weather conditions in past years. The results will help you decide how hot, cold, wet, or windy it might be!

Date:

Astronomy

Feb. 08, 2013 Rise Set
Actual Time 7:19 AM PST 5:06 PM PST
Civil Twilight 6:45 AM PST 5:40 PM PST
Nautical Twilight 6:07 AM PST 6:18 PM PST
Astronomical Twilight 5:30 AM PST 6:55 PM PST
Moon 5:56 AM PST (2/8) 3:43 PM PST (2/8)
Length of Visible Light 10h 54m
Length of Day
9h 47m
Waning Crescent, 3% of the Moon is Illuminated
Feb 8
Waning Crescent
Feb 9
New
Feb 17
First Quarter
Feb 25
Full
Mar 4
Last Quarter

Hourly Weather History & Observations

Time (PST) Temp. Windchill Dew Point Humidity Pressure Visibility Wind Dir Wind Speed Gust Speed Precip Events Conditions
12:00 AM 26.6 °F 22.6 °F 23.0 °F 86% 30.17 in - West 3.5 mph - N/A   Unknown
1:00 AM 25.3 °F 21.1 °F 21.9 °F 87% 30.18 in - West 3.5 mph - N/A   Unknown
2:00 AM 24.6 °F 18.8 °F 20.7 °F 85% 30.19 in - West 4.6 mph - N/A   Unknown
3:00 AM 24.8 °F 16.1 °F 20.1 °F 82% 30.20 in - West 8.1 mph - N/A   Unknown
4:00 AM 26 °F - 20 °F 70% 30.21 in - West 6.9 mph - -  
4:00 AM 26.1 °F 18.4 °F 20.1 °F 78% 30.21 in - West 6.9 mph - N/A   Unknown
5:00 AM 24.1 °F 17.0 °F 19.0 °F 81% 30.23 in - West 5.8 mph - N/A   Unknown
6:00 AM 23.0 °F 14.7 °F 18.3 °F 82% 30.24 in - West 6.9 mph - N/A   Unknown
7:00 AM 23.5 °F 16.4 °F 18.3 °F 80% 30.25 in - West 5.8 mph - N/A   Unknown
8:00 AM 23.9 °F - 18.3 °F 79% 30.27 in - WNW 2.3 mph - N/A   Unknown
9:00 AM 31.8 °F - 20.8 °F 64% 30.26 in - West 1.2 mph - N/A   Unknown
10:00 AM 37 °F - 26 °F 53% 30.26 in - SE 3.5 mph - -  
10:00 AM 36.9 °F 34.3 °F 26.1 °F 65% 30.26 in - SE 3.5 mph - N/A   Unknown
11:00 AM 40.1 °F - 26.1 °F 57% 30.25 in - SE 1.2 mph - N/A   Unknown
12:00 PM 42.1 °F - 23.4 °F 48% 30.22 in - ESE 2.3 mph - N/A   Unknown
1:00 PM 42.3 °F - 26.1 °F 53% 30.20 in - East 2.3 mph - N/A   Unknown
2:00 PM 43.0 °F - 24.8 °F 49% 30.18 in - SE 2.3 mph - N/A   Unknown
3:00 PM 40.1 °F - 25.5 °F 56% 30.18 in - NNE 1.2 mph - N/A   Unknown
4:00 PM 36 °F - 27 °F 59% 30.19 in - South 1.2 mph - -  
4:00 PM 36.5 °F - 27.0 °F 68% 30.19 in - South 1.2 mph - N/A   Unknown
5:00 PM 35.6 °F - 27.1 °F 71% 30.19 in - SW 1.2 mph - N/A   Unknown
6:00 PM 34.3 °F - 27.3 °F 76% 30.19 in - SSW 1.2 mph - N/A   Unknown
7:00 PM 31.6 °F 28.3 °F 26.2 °F 80% 30.19 in - West 3.5 mph - N/A   Unknown
8:00 PM 32.0 °F 28.7 °F 25.7 °F 78% 30.19 in - WNW 3.5 mph - N/A   Unknown
9:00 PM 32.0 °F - 26.4 °F 80% 30.19 in - West 2.3 mph - N/A   Unknown
10:00 PM 31 °F - 26 °F 73% 30.18 in - West 2.3 mph - -  
10:00 PM 30.7 °F - 25.7 °F 82% 30.18 in - West 2.3 mph - N/A   Unknown
11:00 PM 30.2 °F 25.4 °F 25.3 °F 82% 30.17 in - West 4.6 mph - N/A   Unknown